OneWeb SL0345

operational
NORAD ID: 49211 Int'l Des: 2021-083 Owner: ONEWEBN Country: UK Constellation: oneweb
LEOCIRCULARPOLARONEWEB_TYPE

About OneWeb SL0345

Description loading...

Live Position

Loading 3D Globe...

Upcoming Passes

Altitude History

Altitude vs Time

uPlot chart will show altitude changes over time

Two-Line Element Set

1 49211U 21083AB 26014.84206887 .00000306 00000-0 80424-3 0 9997
2 49211 87.8997 350.6969 0001651 95.7038 264.4280 13.13470381210774
Epoch: Jan 14, 2026 • Age: 16 hours

Current Status

Altitude 1239.6 km
Velocity 7.23 km/s
Sub-Earth Point -84.18°S, 31.1°E
Launch Date Sep 14, 2021
Age 4.3 years
Type internet

Technical Details

Classification Payload
Mass 148.00 kg
Dry Mass 140.00 kg
Total Mass 148.00 kg
Length 1.30 m
Diameter 1.00 m
Span 5.00 m
Shape Trapezoid+2 pan
Manufacturer ONEWUS
Bus Type ARROW
Phase Status In Orbit
Owner/State ONEWEBN/UK

Large Constellations

Loading constellations...